Weather History for Sparta, TN

Change the Weather History Date:

Sunday, September 22, 2013

  Actual Average (KCSV) Record (KCSV)
Temperature  
Mean Temperature 58 °F 65 °F  
Max Temperature 73 °F 75 °F 92 °F (1955)
Min Temperature 44 °F 55 °F 33 °F (1983)
Degree Days  
Heating Degree Days 6    
Month to date heating degree days  
Since 1 July heating degree days  
Cooling Degree Days 0    
Month to date cooling degree days  
Year to date cooling degree days  
Growing Degree Days 8 (Base 50)    
Moisture  
Dew Point 50 °F    
Average Humidity 79    
Maximum Humidity 100    
Minimum Humidity 46    
Precipitation  
Precipitation 0.00 in 0.13 in 3.70 in (2003)
Month to date precipitation 2.82  
Year to date precipitation 40.94  
Sea Level Pressure  
Sea Level Pressure 29.92 in    
Wind  
Wind Speed 2 mph (NE)    
Max Wind Speed 12 mph    
Max Gust Speed -    
Visibility 7 miles    
Events      
T = Trace of Precipitation, MM = Missing Value Source: NWS Daily Summary

Daily Weather History Graph

Daily Weather History Graph

Search for Another Location

Airport:

Trip Planner

Search our weather history database for the weather conditions in past years. The results will help you decide how hot, cold, wet, or windy it might be!

Date:

Astronomy

Sep. 22, 2013 Rise Set
Actual Time 6:30 AM CDT 6:38 PM CDT
Civil Twilight 6:04 AM CDT 7:04 PM CDT
Nautical Twilight 5:34 AM CDT 7:34 PM CDT
Astronomical Twilight 5:04 AM CDT 8:04 PM CDT
Moon 8:35 PM CDT (9/22) 9:42 AM CDT (9/22)
Length of Visible Light 12h 59m
Length of Day
12h 08m
Waning Gibbous, 88% of the Moon is Illuminated
Sep 22
Waning Gibbous
Sep 26
Last Quarter
Oct 4
New
Oct 11
First Quarter
Oct 18
Full

Hourly Weather History & Observations

Time (CDT) Temp. Dew Point Humidity Pressure Visibility Wind Dir Wind Speed Gust Speed Precip Events Conditions
12:35 AM 48.2 °F 48.2 °F 100% 29.88 in 1.0 mi Calm Calm - N/A   Unknown
12:55 AM 48.2 °F 48.2 °F 100% 29.88 in 0.8 mi Calm Calm - N/A   Unknown
1:15 AM 48.2 °F 48.2 °F 100% 29.88 in 0.5 mi Calm Calm - N/A   Mostly Cloudy
1:35 AM 48.2 °F 48.2 °F 100% 29.88 in 0.2 mi Calm Calm - N/A   Overcast
1:55 AM 48.2 °F 46.4 °F 93% 29.88 in 0.2 mi Calm Calm - N/A   Overcast
2:15 AM 48.2 °F 48.2 °F 100% 29.88 in 0.2 mi Calm Calm - N/A   Overcast
2:35 AM 48.2 °F 48.2 °F 100% 29.88 in 0.2 mi Calm Calm - N/A   Overcast
2:55 AM 48.2 °F 48.2 °F 100% 29.88 in 0.2 mi Calm Calm - N/A   Overcast
3:15 AM 48.2 °F 48.2 °F 100% 29.88 in 0.5 mi Calm Calm - N/A   Overcast
3:35 AM 48.2 °F 48.2 °F 100% 29.88 in 0.2 mi Calm Calm - N/A   Overcast
3:55 AM 48.2 °F 48.2 °F 100% 29.88 in 0.2 mi Calm Calm - N/A   Overcast
4:15 AM 46.4 °F 46.4 °F 100% 29.89 in 0.5 mi Calm Calm - N/A   Overcast
4:35 AM 46.4 °F 46.4 °F 100% 29.89 in 0.2 mi Calm Calm - N/A   Overcast
4:55 AM 48.2 °F 46.4 °F 93% 29.89 in 0.2 mi Calm Calm - N/A   Overcast
5:15 AM 46.4 °F 46.4 °F 100% 29.89 in 0.2 mi Calm Calm - N/A   Overcast
5:35 AM 46.4 °F 46.4 °F 100% 29.90 in 1.8 mi Calm Calm - N/A   Overcast
5:55 AM 46.4 °F 46.4 °F 100% 29.90 in 0.8 mi Calm Calm - N/A   Mostly Cloudy
6:15 AM 46.4 °F 44.6 °F 93% 29.91 in 1.2 mi Calm Calm - N/A   Clear
6:35 AM 44.6 °F 44.6 °F 100% 29.91 in 0.2 mi Calm Calm - N/A   Mostly Cloudy
6:55 AM 46.4 °F 44.6 °F 93% 29.92 in 0.5 mi Calm Calm - N/A   Unknown
7:15 AM 48.2 °F 46.4 °F 93% 29.92 in 1.0 mi Calm Calm - N/A   Unknown
7:35 AM 50.0 °F 50.0 °F 100% 29.93 in 10.0 mi Calm Calm - N/A   Clear
7:55 AM 53.6 °F 51.8 °F 94% 29.93 in 10.0 mi Calm Calm - N/A   Clear
8:15 AM 55.4 °F 53.6 °F 94% 29.93 in 10.0 mi NNE 3.5 mph - N/A   Clear
8:35 AM 57.2 °F 53.6 °F 88% 29.94 in 10.0 mi NNE 4.6 mph - N/A   Clear
8:55 AM 59.0 °F 53.6 °F 82% 29.94 in 10.0 mi NNE 4.6 mph - N/A   Clear
9:15 AM 60.8 °F 53.6 °F 77% 29.94 in 10.0 mi NNE 5.8 mph - N/A   Clear
9:35 AM 62.6 °F 53.6 °F 72% 29.94 in 10.0 mi NNE 5.8 mph - N/A   Clear
9:55 AM 64.4 °F 53.6 °F 68% 29.95 in 10.0 mi Variable 5.8 mph - N/A   Clear
10:15 AM 66.2 °F 53.6 °F 64% 29.95 in 10.0 mi NE 5.8 mph - N/A   Clear
10:35 AM 66.2 °F 51.8 °F 60% 29.95 in 10.0 mi NE 6.9 mph - N/A   Clear
10:55 AM 68.0 °F 51.8 °F 56% 29.95 in 10.0 mi NE 8.1 mph - N/A   Clear
11:15 AM 69.8 °F 50.0 °F 49% 29.95 in 10.0 mi ENE 11.5 mph - N/A   Clear
11:35 AM 69.8 °F 51.8 °F 53% 29.95 in 10.0 mi NE 8.1 mph - N/A   Partly Cloudy
11:55 AM 69.8 °F 50.0 °F 49% 29.95 in 10.0 mi NE 8.1 mph - N/A   Scattered Clouds
12:15 PM 69.8 °F 50.0 °F 49% 29.95 in 10.0 mi NNE 8.1 mph - N/A   Partly Cloudy
12:35 PM 71.6 °F 50.0 °F 46% 29.95 in 10.0 mi Variable 4.6 mph - N/A   Clear
12:55 PM 71.6 °F 50.0 °F 46% 29.94 in 10.0 mi ENE 6.9 mph - N/A   Clear
1:15 PM 71.6 °F 51.8 °F 50% 29.94 in 10.0 mi NE 5.8 mph - N/A   Clear
1:35 PM 71.6 °F 51.8 °F 50% 29.93 in 10.0 mi Variable 6.9 mph - N/A   Clear
1:55 PM 71.6 °F 51.8 °F 50% 29.93 in 10.0 mi NNE 6.9 mph - N/A   Clear
2:15 PM 71.6 °F 51.8 °F 50% 29.92 in 10.0 mi ENE 5.8 mph - N/A   Clear
2:35 PM 71.6 °F 51.8 °F 50% 29.92 in 10.0 mi ENE 5.8 mph - N/A   Clear
2:55 PM 71.6 °F 51.8 °F 50% 29.92 in 10.0 mi Variable 4.6 mph - N/A   Clear
3:15 PM 71.6 °F 50.0 °F 46% 29.91 in 10.0 mi Variable 6.9 mph - N/A   Clear
3:35 PM 73.4 °F 51.8 °F 47% 29.91 in 10.0 mi NE 5.8 mph - N/A   Clear
3:55 PM 71.6 °F 51.8 °F 50% 29.91 in 10.0 mi ENE 6.9 mph - N/A   Clear
4:15 PM 71.6 °F 51.8 °F 50% 29.90 in 10.0 mi NE 4.6 mph - N/A   Clear
4:35 PM 71.6 °F 51.8 °F 50% 29.90 in 10.0 mi Variable 4.6 mph - N/A   Clear
4:55 PM 71.6 °F 51.8 °F 50% 29.91 in 10.0 mi NNE 6.9 mph - N/A   Clear
5:15 PM 71.6 °F 51.8 °F 50% 29.91 in 10.0 mi North 4.6 mph - N/A   Clear
5:35 PM 69.8 °F 51.8 °F 53% 29.91 in 10.0 mi Variable 4.6 mph - N/A   Clear
5:55 PM 68.0 °F 51.8 °F 56% 29.92 in 10.0 mi NNE 3.5 mph - N/A   Clear
6:15 PM 66.2 °F 53.6 °F 64% 29.92 in 10.0 mi Calm Calm - N/A   Clear
6:35 PM 62.6 °F 55.4 °F 77% 29.92 in 10.0 mi Calm Calm - N/A   Clear
6:55 PM 60.8 °F 55.4 °F 82% 29.92 in 10.0 mi NE 3.5 mph - N/A   Clear
7:15 PM 57.2 °F 53.6 °F 88% 29.92 in 10.0 mi NNE 3.5 mph - N/A   Clear
7:35 PM 55.4 °F 53.6 °F 94% 29.93 in 10.0 mi Calm Calm - N/A   Clear
7:55 PM 53.6 °F 51.8 °F 94% 29.93 in 10.0 mi Calm Calm - N/A   Clear
8:15 PM 51.8 °F 51.8 °F 100% 29.94 in 10.0 mi Calm Calm - N/A   Clear
8:35 PM 53.6 °F 51.8 °F 94% 29.94 in 10.0 mi Calm Calm - N/A   Clear
8:55 PM 53.6 °F 51.8 °F 94% 29.94 in 10.0 mi NE 3.5 mph - N/A   Clear
9:15 PM 53.6 °F 53.6 °F 100% 29.95 in 10.0 mi Calm Calm - N/A   Clear
9:35 PM 53.6 °F 51.8 °F 94% 29.95 in 10.0 mi Calm Calm - N/A   Clear
9:55 PM 53.6 °F 51.8 °F 94% 29.95 in 10.0 mi ENE 3.5 mph - N/A   Clear
10:15 PM 51.8 °F 51.8 °F 100% 29.95 in 10.0 mi Calm Calm - N/A   Clear
10:35 PM 48.2 °F 48.2 °F 100% 29.95 in 8.0 mi Calm Calm - N/A   Clear
10:55 PM 48.2 °F 48.2 °F 100% 29.95 in 10.0 mi Calm Calm - N/A   Clear
11:15 PM 48.2 °F 46.4 °F 93% 29.96 in 10.0 mi Calm Calm - N/A   Clear
11:35 PM 48.2 °F 46.4 °F 93% 29.96 in 10.0 mi Calm Calm - N/A   Clear
11:55 PM 46.4 °F 46.4 °F 100% 29.96 in 7.0 mi Calm Calm - N/A   Clear